THY4SD EGLL-LTFM

Flight info

Callsign THY4SD
Flight time 3h 5m
Altitude 23000
Route DET2G DET L6 DVR L9 KONAN/N0484F370 UL607 KOK DCT LIRSU DCT LALMI/N0476F390 DCT ABTAL DCT RIDAR DCT GOMIG DCT NEMAL DCT GOTAR DCT BABIT DCT ESIRI DCT ETIDA T390 RILEX RILEX1A
Aircraft B77W/H-V/N

Departure

Time 2026-05-03 20:59
Airport London Heathrow Airport (EGLL)

Arrival

Time 2026-05-04 00:05
Airport İstanbul Airport (LTFM)
Time Latitude Longitude Altitude Speed Heading
2026-05-03 20:29 51.46864 -0.44416 91 ft 0 kts 90°
2026-05-03 20:51 51.46864 -0.44449 92 ft 4 kts 90°
2026-05-03 20:51 51.46864 -0.44490 91 ft 4 kts 90°
2026-05-03 20:51 51.46865 -0.44525 91 ft 4 kts 109°
2026-05-03 20:51 51.46877 -0.44551 92 ft 4 kts 165°
2026-05-03 20:52 51.46902 -0.44555 92 ft 4 kts 180°
2026-05-03 20:52 51.46913 -0.44555 90 ft 1 kts 180°
2026-05-03 20:55 51.46891 -0.44555 92 ft 7 kts 180°
2026-05-03 20:55 51.46826 -0.44554 92 ft 10 kts 180°
2026-05-03 20:55 51.46753 -0.44554 94 ft 10 kts 180°
2026-05-03 20:56 51.46683 -0.44539 95 ft 10 kts 145°
2026-05-03 20:56 51.46665 -0.44401 91 ft 17 kts 90°
2026-05-03 20:56 51.46666 -0.44210 91 ft 17 kts 89°
2026-05-03 20:56 51.46667 -0.44024 91 ft 17 kts 90°
2026-05-03 20:57 51.46667 -0.43857 91 ft 9 kts 89°
2026-05-03 20:57 51.46668 -0.43755 91 ft 9 kts 89°
2026-05-03 20:57 51.46664 -0.43654 91 ft 9 kts 110°
2026-05-03 20:57 51.46610 -0.43606 94 ft 9 kts 173°
2026-05-03 20:58 51.46545 -0.43603 92 ft 9 kts 179°
2026-05-03 20:58 51.46498 -0.43655 91 ft 10 kts 256°
2026-05-03 20:58 51.46494 -0.43790 91 ft 26 kts 269°
2026-05-03 20:58 51.46492 -0.44573 93 ft 112 kts 270°
2026-05-03 20:59 51.46491 -0.46206 161 ft 171 kts 270°
2026-05-03 20:59 51.46479 -0.48127 908 ft 171 kts 268°
2026-05-03 20:59 51.46444 -0.50068 1756 ft 176 kts 268°
2026-05-03 20:59 51.46300 -0.52104 2248 ft 197 kts 251°
2026-05-03 21:00 51.45491 -0.54050 2523 ft 228 kts 220°
2026-05-03 21:00 51.44540 -0.54879 2811 ft 242 kts 195°
2026-05-03 21:00 51.42326 -0.54261 3818 ft 255 kts 143°
2026-05-03 21:00 51.41087 -0.52196 4574 ft 261 kts 130°
2026-05-03 21:01 51.39902 -0.49968 5396 ft 265 kts 132°
2026-05-03 21:01 51.38645 -0.47767 5958 ft 270 kts 134°
2026-05-03 21:01 51.37332 -0.45599 5990 ft 273 kts 136°
2026-05-03 21:01 51.35988 -0.43462 6009 ft 271 kts 136°
2026-05-03 21:02 51.34659 -0.41386 6349 ft 264 kts 137°
2026-05-03 21:02 51.33326 -0.39317 6860 ft 271 kts 137°
2026-05-03 21:02 51.32065 -0.37058 7331 ft 276 kts 120°
2026-05-03 21:02 51.31549 -0.34083 7847 ft 284 kts 93°
2026-05-03 21:03 51.31615 -0.30919 8391 ft 287 kts 88°
2026-05-03 21:03 51.31716 -0.27713 8914 ft 291 kts 89°
2026-05-03 21:03 51.31809 -0.24466 9442 ft 294 kts 90°
2026-05-03 21:03 51.31802 -0.21195 9968 ft 295 kts 93°
2026-05-03 21:04 51.31744 -0.17907 10434 ft 297 kts 94°
2026-05-03 21:04 51.31681 -0.14604 10937 ft 298 kts 94°
2026-05-03 21:04 51.31626 -0.11289 11428 ft 299 kts 94°
2026-05-03 21:04 51.31574 -0.07957 11936 ft 301 kts 94°
2026-05-03 21:05 51.31524 -0.04607 12451 ft 302 kts 94°
2026-05-03 21:05 51.31472 -0.01236 12974 ft 304 kts 94°
2026-05-03 21:05 51.31419 0.02155 13506 ft 307 kts 94°
2026-05-03 21:05 51.31365 0.05585 14025 ft 311 kts 94°
2026-05-03 21:06 51.31310 0.09057 14527 ft 314 kts 94°
2026-05-03 21:06 51.31253 0.12575 15024 ft 318 kts 94°
2026-05-03 21:06 51.31196 0.16128 15550 ft 322 kts 94°
2026-05-03 21:06 51.31136 0.19725 16050 ft 325 kts 94°
2026-05-03 21:07 51.31075 0.23345 16584 ft 328 kts 94°
2026-05-03 21:07 51.31012 0.27015 17116 ft 331 kts 94°
2026-05-03 21:07 51.30947 0.30719 17583 ft 341 kts 94°
2026-05-03 21:07 51.30874 0.34670 17802 ft 370 kts 94°
2026-05-03 21:08 51.30796 0.38928 18027 ft 397 kts 94°
2026-05-03 21:08 51.30712 0.43463 18353 ft 418 kts 94°
2026-05-03 21:08 51.30624 0.48174 18953 ft 429 kts 93°
2026-05-03 21:08 51.30534 0.52980 19722 ft 435 kts 94°
2026-05-03 21:09 51.30438 0.57820 20589 ft 438 kts 94°
2026-05-03 21:09 51.30104 0.62646 21372 ft 437 kts 105°
2026-05-03 21:09 51.29286 0.67332 22087 ft 441 kts 110°
2026-05-03 21:09 51.28339 0.72027 22840 ft 446 kts 111°
2026-05-03 21:10 51.27383 0.76757 23612 ft 450 kts 111°
2026-05-03 21:10 51.26444 0.81541 24263 ft 453 kts 110°
2026-05-03 21:10 51.25524 0.86374 24912 ft 457 kts 110°
2026-05-03 21:10 51.24615 0.91254 25530 ft 461 kts 110°
2026-05-03 21:11 51.23706 0.96175 26084 ft 465 kts 110°
2026-05-03 21:11 51.22787 1.01157 26578 ft 471 kts 110°
2026-05-03 21:11 51.21857 1.06188 27142 ft 475 kts 110°
2026-05-03 21:11 51.20920 1.11244 27757 ft 477 kts 111°
2026-05-03 21:12 51.19974 1.16320 28360 ft 479 kts 111°
2026-05-03 21:12 51.19021 1.21423 28877 ft 482 kts 111°
2026-05-03 21:12 51.18058 1.26561 29334 ft 485 kts 111°
2026-05-03 21:12 51.17092 1.31733 29784 ft 489 kts 110°
2026-05-03 21:13 51.16311 1.37032 30166 ft 495 kts 105°
2026-05-03 21:13 51.15864 1.42500 30541 ft 500 kts 99°
2026-05-03 21:13 51.15624 1.48045 30892 ft 503 kts 98°
2026-05-03 21:13 51.15394 1.53618 31273 ft 505 kts 98°
2026-05-03 21:14 51.15157 1.59116 31703 ft 505 kts 99°
2026-05-03 21:14 51.14900 1.64693 32123 ft 505 kts 99°
2026-05-03 21:14 51.14629 1.70264 32532 ft 505 kts 99°
2026-05-03 21:14 51.14348 1.75843 32927 ft 506 kts 99°
2026-05-03 21:15 51.14063 1.81426 33316 ft 506 kts 99°
2026-05-03 21:15 51.13774 1.87016 33708 ft 507 kts 99°
2026-05-03 21:15 51.13485 1.92615 34044 ft 508 kts 100°
2026-05-03 21:15 51.13193 1.98226 34362 ft 508 kts 99°
2026-05-03 21:16 51.12899 2.03824 34756 ft 506 kts 99°
2026-05-03 21:16 51.12604 2.09398 35176 ft 504 kts 99°
2026-05-03 21:16 51.12307 2.14943 35575 ft 502 kts 99°
2026-05-03 21:16 51.12110 2.18611 35821 ft 502 kts 99°
2026-05-03 21:17 51.11810 2.24133 36180 ft 501 kts 99°
2026-05-03 21:17 51.11507 2.29654 36529 ft 500 kts 99°
2026-05-03 21:17 51.11204 2.35154 36848 ft 499 kts 99°
2026-05-03 21:17 51.10895 2.40684 36877 ft 504 kts 99°
2026-05-03 21:18 51.10270 2.51802 36915 ft 503 kts 99°
2026-05-03 21:18 51.09552 2.62791 36922 ft 495 kts 104°
2026-05-03 21:19 51.07833 2.73295 36923 ft 488 kts 114°
2026-05-03 21:19 51.05549 2.83435 36943 ft 488 kts 114°
2026-05-03 21:20 51.03256 2.93598 36934 ft 489 kts 114°
2026-05-03 21:20 51.00975 3.03809 36938 ft 491 kts 114°
2026-05-03 21:21 50.98693 3.14050 36933 ft 493 kts 114°
2026-05-03 21:21 50.96395 3.24326 36929 ft 494 kts 114°
2026-05-03 21:22 50.94085 3.34592 36920 ft 495 kts 114°
2026-05-03 21:22 50.91763 3.44866 36929 ft 495 kts 114°
2026-05-03 21:23 50.89431 3.55125 36937 ft 495 kts 114°
2026-05-03 21:23 50.87091 3.65371 36930 ft 494 kts 114°
2026-05-03 21:24 50.84747 3.75585 36923 ft 494 kts 114°
2026-05-03 21:24 50.82396 3.85782 36937 ft 493 kts 114°
2026-05-03 21:25 50.80039 3.95954 36940 ft 492 kts 114°
2026-05-03 21:25 50.77675 4.06108 36947 ft 492 kts 114°
2026-05-03 21:26 50.75303 4.16246 36956 ft 493 kts 114°
2026-05-03 21:26 50.72917 4.26398 36961 ft 493 kts 114°
2026-05-03 21:27 50.70522 4.36540 36958 ft 493 kts 115°
2026-05-03 21:27 50.68117 4.46679 36961 ft 494 kts 115°
2026-05-03 21:28 50.65704 4.56803 36962 ft 494 kts 115°
2026-05-03 21:28 50.63279 4.66931 36940 ft 494 kts 115°
2026-05-03 21:29 50.60865 4.76963 36947 ft 493 kts 115°
2026-05-03 21:29 50.58426 4.87056 36961 ft 493 kts 115°
2026-05-03 21:30 50.55979 4.97135 36959 ft 493 kts 115°
2026-05-03 21:30 50.53524 5.07201 36955 ft 494 kts 115°
2026-05-03 21:31 50.51056 5.17274 36956 ft 493 kts 115°
2026-05-03 21:31 50.48580 5.27328 36961 ft 494 kts 115°
2026-05-03 21:32 50.46095 5.37379 36965 ft 494 kts 115°
2026-05-03 21:32 50.43601 5.47423 36960 ft 494 kts 115°
2026-05-03 21:33 50.41096 5.57464 36948 ft 494 kts 115°
2026-05-03 21:33 50.38581 5.67494 36964 ft 494 kts 115°
2026-05-03 21:34 50.36060 5.77508 36977 ft 494 kts 115°
2026-05-03 21:34 50.33530 5.87514 36973 ft 494 kts 115°
2026-05-03 21:35 50.31011 5.97432 36981 ft 494 kts 115°
2026-05-03 21:35 50.28468 6.07402 36975 ft 493 kts 116°
2026-05-03 21:36 50.25915 6.17365 36970 ft 493 kts 116°
2026-05-03 21:36 50.23358 6.27304 36969 ft 493 kts 116°
2026-05-03 21:37 50.20791 6.37241 36973 ft 493 kts 116°
2026-05-03 21:37 50.18152 6.47103 36952 ft 491 kts 121°
2026-05-03 21:38 50.14991 6.56510 36978 ft 490 kts 122°
2026-05-03 21:38 50.11760 6.65875 36982 ft 491 kts 122°
2026-05-03 21:39 50.08532 6.75279 36980 ft 493 kts 122°
2026-05-03 21:39 50.05313 6.84693 36988 ft 493 kts 122°
2026-05-03 21:40 50.02086 6.94116 36977 ft 493 kts 122°
2026-05-03 21:40 49.98852 7.03526 37015 ft 494 kts 122°
2026-05-03 21:41 49.95602 7.12938 37018 ft 494 kts 122°
2026-05-03 21:41 49.92351 7.22320 37023 ft 494 kts 122°
2026-05-03 21:42 49.89112 7.31631 36992 ft 493 kts 122°
2026-05-03 21:42 49.85845 7.40987 36997 ft 493 kts 122°
2026-05-03 21:43 49.82572 7.50328 37001 ft 493 kts 122°
2026-05-03 21:43 49.79290 7.59664 37004 ft 494 kts 122°
2026-05-03 21:44 49.75999 7.68988 36997 ft 494 kts 122°
2026-05-03 21:44 49.72709 7.78278 36995 ft 492 kts 122°
2026-05-03 21:45 49.69420 7.87530 36990 ft 491 kts 122°
2026-05-03 21:45 49.66128 7.96757 36997 ft 490 kts 122°
2026-05-03 21:46 49.62831 8.05964 37011 ft 490 kts 123°
2026-05-03 21:46 49.59525 8.15163 37021 ft 490 kts 123°
2026-05-03 21:47 49.56216 8.24340 37001 ft 490 kts 123°
2026-05-03 21:47 49.52902 8.33499 37027 ft 489 kts 123°
2026-05-03 21:48 49.49584 8.42636 37030 ft 489 kts 123°
2026-05-03 21:48 49.46259 8.51760 37010 ft 489 kts 123°
2026-05-03 21:49 49.42923 8.60882 37025 ft 489 kts 123°
2026-05-03 21:49 49.39581 8.69990 37032 ft 490 kts 123°
2026-05-03 21:50 49.36230 8.79095 37027 ft 491 kts 123°
2026-05-03 21:50 49.32849 8.88191 37031 ft 491 kts 124°
2026-05-03 21:51 49.29443 8.97173 37037 ft 491 kts 123°
2026-05-03 21:51 49.26005 9.06201 37042 ft 491 kts 123°
2026-05-03 21:52 49.22566 9.15225 37047 ft 491 kts 123°
2026-05-03 21:52 49.19125 9.24235 37054 ft 490 kts 124°
2026-05-03 21:53 49.15676 9.33234 37034 ft 490 kts 123°
2026-05-03 21:53 49.12227 9.42205 37044 ft 490 kts 123°
2026-05-03 21:54 49.08772 9.51158 37046 ft 489 kts 123°
2026-05-03 21:54 49.05315 9.60086 37042 ft 489 kts 124°
2026-05-03 21:55 49.01849 9.69006 37053 ft 489 kts 124°
2026-05-03 21:55 48.98379 9.77908 37047 ft 489 kts 124°
2026-05-03 21:56 48.94904 9.86794 37050 ft 489 kts 124°
2026-05-03 21:56 48.91421 9.95670 37050 ft 489 kts 124°
2026-05-03 21:57 48.87931 10.04541 37051 ft 489 kts 124°
2026-05-03 21:57 48.84440 10.13411 37041 ft 489 kts 123°
2026-05-03 21:58 48.81041 10.22346 37049 ft 489 kts 122°
2026-05-03 21:58 48.77658 10.31295 37054 ft 489 kts 123°
2026-05-03 21:59 48.74262 10.40207 37052 ft 488 kts 123°
2026-05-03 21:59 48.70854 10.49096 37051 ft 488 kts 123°
2026-05-03 22:00 48.67437 10.57976 37048 ft 488 kts 123°
2026-05-03 22:00 48.64040 10.66777 37048 ft 488 kts 123°
2026-05-03 22:01 48.60612 10.75633 37040 ft 488 kts 123°
2026-05-03 22:01 48.57644 10.84882 37018 ft 492 kts 112°
2026-05-03 22:02 48.55442 10.94680 37030 ft 493 kts 111°
2026-05-03 22:02 48.53251 11.04484 37018 ft 494 kts 111°
2026-05-03 22:03 48.51017 11.14281 37017 ft 494 kts 111°
2026-05-03 22:03 48.48757 11.24059 37012 ft 494 kts 111°
2026-05-03 22:04 48.46486 11.33819 37018 ft 494 kts 111°
2026-05-03 22:04 48.44207 11.43580 37010 ft 493 kts 111°
2026-05-03 22:05 48.41924 11.53318 37000 ft 493 kts 111°
2026-05-03 22:05 48.39633 11.63051 37000 ft 493 kts 111°
2026-05-03 22:06 48.37725 11.71119 36986 ft 493 kts 111°
2026-05-03 22:06 48.35052 11.82380 36991 ft 491 kts 111°
2026-05-03 22:07 48.33119 11.90484 36992 ft 491 kts 111°
2026-05-03 22:07 48.30810 12.00126 36996 ft 490 kts 111°
2026-05-03 22:08 48.28493 12.09760 36977 ft 490 kts 111°
2026-05-03 22:08 48.26171 12.19370 36989 ft 489 kts 111°
2026-05-03 22:09 48.23844 12.28960 36980 ft 489 kts 111°
2026-05-03 22:10 48.20357 12.43257 36974 ft 489 kts 111°
2026-05-03 22:10 48.18013 12.52816 36970 ft 489 kts 111°
2026-05-03 22:11 48.15661 12.62375 36966 ft 489 kts 112°
2026-05-03 22:11 48.13287 12.71914 36963 ft 489 kts 112°
2026-05-03 22:12 48.10741 12.81344 36966 ft 489 kts 114°
2026-05-03 22:12 48.08120 12.90802 36961 ft 489 kts 114°
2026-05-03 22:13 48.05548 13.00140 36969 ft 489 kts 114°
2026-05-03 22:13 48.02966 13.09541 36958 ft 489 kts 114°
2026-05-03 22:14 48.00374 13.18949 36961 ft 489 kts 114°
2026-05-03 22:14 47.97777 13.28335 36958 ft 489 kts 114°
2026-05-03 22:15 47.95172 13.37711 36964 ft 489 kts 114°
2026-05-03 22:15 47.92561 13.47076 36966 ft 489 kts 114°
2026-05-03 22:16 47.89841 13.56345 36963 ft 488 kts 116°
2026-05-03 22:16 47.86871 13.65432 36955 ft 488 kts 117°
2026-05-03 22:17 47.83880 13.74488 36960 ft 487 kts 117°
2026-05-03 22:17 47.80918 13.83563 36982 ft 487 kts 116°
2026-05-03 22:18 47.77970 13.92642 36974 ft 488 kts 116°
2026-05-03 22:18 47.75018 14.01717 36979 ft 488 kts 116°
2026-05-03 22:19 47.72052 14.10792 36986 ft 489 kts 116°
2026-05-03 22:19 47.69074 14.19871 36989 ft 489 kts 116°
2026-05-03 22:20 47.66086 14.28945 37003 ft 490 kts 116°
2026-05-03 22:20 47.63088 14.38016 37130 ft 490 kts 117°
2026-05-03 22:20 47.61589 14.42538 37545 ft 488 kts 116°
2026-05-03 22:21 47.60094 14.47044 37913 ft 487 kts 116°
2026-05-03 22:21 47.58596 14.51549 38234 ft 487 kts 116°
2026-05-03 22:21 47.57099 14.56044 38558 ft 486 kts 116°
2026-05-03 22:21 47.55602 14.60530 38814 ft 486 kts 116°
2026-05-03 22:22 47.54100 14.65025 38948 ft 488 kts 116°
2026-05-03 22:22 47.51075 14.74047 39067 ft 489 kts 116°
2026-05-03 22:23 47.48046 14.83060 39084 ft 490 kts 116°
2026-05-03 22:23 47.44996 14.92099 39088 ft 492 kts 116°
2026-05-03 22:24 47.41930 15.01153 39076 ft 493 kts 116°
2026-05-03 22:24 47.38857 15.10193 39084 ft 492 kts 116°
2026-05-03 22:25 47.35780 15.19214 39092 ft 492 kts 116°
2026-05-03 22:25 47.32722 15.28153 39087 ft 491 kts 116°
2026-05-03 22:26 47.29643 15.37122 39088 ft 490 kts 116°
2026-05-03 22:26 47.26564 15.46058 39094 ft 489 kts 116°
2026-05-03 22:27 47.23482 15.54972 39098 ft 489 kts 116°
2026-05-03 22:27 47.20393 15.63878 39090 ft 488 kts 116°
2026-05-03 22:28 47.17302 15.72758 39085 ft 488 kts 116°
2026-05-03 22:28 47.14204 15.81629 39086 ft 488 kts 116°
2026-05-03 22:29 47.11098 15.90494 39084 ft 488 kts 116°
2026-05-03 22:29 47.07987 15.99344 39082 ft 488 kts 116°
2026-05-03 22:30 47.04869 16.08185 39090 ft 488 kts 116°
2026-05-03 22:30 47.01740 16.17031 39089 ft 489 kts 116°
2026-05-03 22:31 46.98585 16.25854 39091 ft 489 kts 117°
2026-05-03 22:31 46.95305 16.34580 39090 ft 489 kts 118°
2026-05-03 22:32 46.91990 16.43274 39091 ft 490 kts 118°
2026-05-03 22:32 46.88676 16.51985 39089 ft 490 kts 118°
2026-05-03 22:33 46.85370 16.60686 39096 ft 490 kts 118°
2026-05-03 22:33 46.82061 16.69378 39095 ft 489 kts 118°
2026-05-03 22:34 46.78747 16.78052 39091 ft 489 kts 118°
2026-05-03 22:34 46.75430 16.86704 39096 ft 489 kts 118°
2026-05-03 22:35 46.72130 16.95287 39126 ft 488 kts 118°
2026-05-03 22:35 46.68803 17.03911 39131 ft 488 kts 118°
2026-05-03 22:36 46.65468 17.12528 39131 ft 489 kts 118°
2026-05-03 22:36 46.62125 17.21138 39131 ft 489 kts 118°
2026-05-03 22:37 46.58774 17.29740 39129 ft 489 kts 118°
2026-05-03 22:37 46.55413 17.38342 39122 ft 490 kts 118°
2026-05-03 22:38 46.52044 17.46938 39119 ft 490 kts 118°
2026-05-03 22:38 46.48665 17.55532 39116 ft 490 kts 118°
2026-05-03 22:39 46.45277 17.64123 39127 ft 491 kts 117°
2026-05-03 22:39 46.41880 17.72708 39122 ft 491 kts 117°
2026-05-03 22:40 46.38477 17.81281 39121 ft 491 kts 118°
2026-05-03 22:40 46.35066 17.89848 39128 ft 491 kts 118°
2026-05-03 22:41 46.31646 17.98410 39131 ft 492 kts 117°
2026-05-03 22:41 46.28219 18.06966 39134 ft 492 kts 117°
2026-05-03 22:42 46.24786 18.15507 39141 ft 491 kts 117°
2026-05-03 22:42 46.21347 18.24040 39171 ft 492 kts 117°
2026-05-03 22:43 46.17923 18.32504 39157 ft 492 kts 117°
2026-05-03 22:43 46.14473 18.41010 39151 ft 491 kts 117°
2026-05-03 22:44 46.11022 18.49492 39150 ft 490 kts 117°
2026-05-03 22:44 46.07572 18.57947 39174 ft 489 kts 117°
2026-05-03 22:45 46.04117 18.66389 39141 ft 489 kts 117°
2026-05-03 22:45 46.00661 18.74806 39145 ft 488 kts 117°
2026-05-03 22:46 45.97204 18.83206 39147 ft 488 kts 117°
2026-05-03 22:46 45.93707 18.91572 39165 ft 489 kts 120°
2026-05-03 22:47 45.89472 18.99272 39165 ft 493 kts 128°
2026-05-03 22:47 45.84915 19.06631 39161 ft 493 kts 129°
2026-05-03 22:48 45.80361 19.13999 39155 ft 494 kts 128°
2026-05-03 22:48 45.75824 19.21391 39181 ft 494 kts 128°
2026-05-03 22:49 45.71289 19.28792 39159 ft 495 kts 128°
2026-05-03 22:49 45.66778 19.36137 39161 ft 495 kts 128°
2026-05-03 22:50 45.62229 19.43520 39169 ft 495 kts 128°
2026-05-03 22:50 45.57669 19.50898 39165 ft 495 kts 128°
2026-05-03 22:51 45.53103 19.58266 39163 ft 496 kts 128°
2026-05-03 22:51 45.48532 19.65624 39167 ft 496 kts 128°
2026-05-03 22:52 45.43957 19.72967 39153 ft 496 kts 128°
2026-05-03 22:52 45.39374 19.80305 39179 ft 496 kts 128°
2026-05-03 22:53 45.34782 19.87638 39169 ft 496 kts 128°
2026-05-03 22:53 45.30186 19.94956 39168 ft 496 kts 128°
2026-05-03 22:54 45.25585 20.02265 39175 ft 496 kts 129°
2026-05-03 22:54 45.20978 20.09562 39182 ft 496 kts 128°
2026-05-03 22:55 45.17148 20.15615 39180 ft 496 kts 128°
2026-05-03 22:55 45.12536 20.22887 39169 ft 496 kts 129°
2026-05-03 22:56 45.07922 20.30142 39176 ft 496 kts 129°
2026-05-03 22:56 45.03307 20.37380 39180 ft 496 kts 129°
2026-05-03 22:57 44.98684 20.44611 39196 ft 496 kts 129°
2026-05-03 22:57 44.94059 20.51828 39185 ft 495 kts 129°
2026-05-03 22:58 44.89429 20.59032 39175 ft 495 kts 129°
2026-05-03 22:58 44.84797 20.66223 39169 ft 495 kts 129°
2026-05-03 22:59 44.80160 20.73403 39168 ft 495 kts 129°
2026-05-03 22:59 44.75522 20.80565 39160 ft 495 kts 129°
2026-05-03 23:00 44.70882 20.87711 39182 ft 495 kts 129°
2026-05-03 23:00 44.66240 20.94843 39169 ft 494 kts 129°
2026-05-03 23:01 44.61597 21.01958 39162 ft 494 kts 129°
2026-05-03 23:01 44.56956 21.09052 39153 ft 493 kts 129°
2026-05-03 23:02 44.52316 21.16126 39194 ft 493 kts 129°
2026-05-03 23:02 44.47668 21.23196 39179 ft 493 kts 129°
2026-05-03 23:03 44.43052 21.30200 39177 ft 493 kts 129°
2026-05-03 23:03 44.38399 21.37242 39184 ft 493 kts 129°
2026-05-03 23:04 44.33747 21.44267 39198 ft 493 kts 129°
2026-05-03 23:04 44.29098 21.51294 39176 ft 492 kts 129°
2026-05-03 23:05 44.24473 21.58318 39189 ft 491 kts 129°
2026-05-03 23:05 44.19852 21.65324 39196 ft 491 kts 129°
2026-05-03 23:06 44.15221 21.72323 39202 ft 491 kts 130°
2026-05-03 23:06 44.10584 21.79310 39188 ft 491 kts 130°
2026-05-03 23:07 44.05947 21.86277 39199 ft 491 kts 130°
2026-05-03 23:07 44.01308 21.93233 39183 ft 491 kts 130°
2026-05-03 23:08 43.96660 22.00186 39195 ft 492 kts 130°
2026-05-03 23:08 43.92003 22.07134 39192 ft 492 kts 130°
2026-05-03 23:09 43.87336 22.14080 39201 ft 492 kts 130°
2026-05-03 23:09 43.82662 22.21020 39202 ft 493 kts 130°
2026-05-03 23:10 43.77978 22.27958 39209 ft 493 kts 130°
2026-05-03 23:10 43.73286 22.34892 39203 ft 494 kts 130°
2026-05-03 23:11 43.68857 22.42098 39216 ft 490 kts 122°
2026-05-03 23:11 43.65434 22.50121 39235 ft 487 kts 113°
2026-05-03 23:12 43.62411 22.58500 39239 ft 488 kts 113°
2026-05-03 23:12 43.59359 22.66923 39237 ft 487 kts 113°
2026-05-03 23:13 43.56318 22.75204 39249 ft 487 kts 113°
2026-05-03 23:13 43.53245 22.83506 39258 ft 486 kts 113°
2026-05-03 23:14 43.50172 22.91772 39250 ft 484 kts 113°
2026-05-03 23:14 43.47084 23.00062 39275 ft 482 kts 114°
2026-05-03 23:15 43.44044 23.08200 39287 ft 481 kts 114°
2026-05-03 23:15 43.40983 23.16374 39284 ft 480 kts 114°
2026-05-03 23:16 43.37919 23.24533 39297 ft 480 kts 114°
2026-05-03 23:16 43.34849 23.32685 39299 ft 481 kts 114°
2026-05-03 23:17 43.31762 23.40859 39304 ft 483 kts 114°
2026-05-03 23:17 43.28649 23.49076 39295 ft 487 kts 114°
2026-05-03 23:18 43.25513 23.57329 39294 ft 489 kts 114°
2026-05-03 23:18 43.22353 23.65619 39303 ft 491 kts 115°
2026-05-03 23:19 43.19177 23.73928 39291 ft 493 kts 115°
2026-05-03 23:19 43.15987 23.82246 39290 ft 493 kts 115°
2026-05-03 23:20 43.12791 23.90557 39291 ft 493 kts 115°
2026-05-03 23:20 43.09589 23.98861 39298 ft 493 kts 116°
2026-05-03 23:21 43.06382 24.07154 39288 ft 493 kts 116°
2026-05-03 23:21 43.03173 24.15426 39285 ft 492 kts 116°
2026-05-03 23:22 42.98362 24.27786 39292 ft 490 kts 116°
2026-05-03 23:22 42.95156 24.35993 39308 ft 489 kts 116°
2026-05-03 23:23 42.91950 24.44177 39273 ft 488 kts 116°
2026-05-03 23:23 42.88798 24.52201 39290 ft 488 kts 116°
2026-05-03 23:24 42.85615 24.60285 39280 ft 487 kts 116°
2026-05-03 23:24 42.82406 24.68406 39273 ft 487 kts 116°
2026-05-03 23:25 42.79195 24.76516 39265 ft 487 kts 116°
2026-05-03 23:25 42.75969 24.84642 39263 ft 488 kts 116°
2026-05-03 23:26 42.72735 24.92766 39237 ft 488 kts 117°
2026-05-03 23:26 42.69496 25.00880 39229 ft 488 kts 117°
2026-05-03 23:27 42.66255 25.08978 39220 ft 488 kts 117°
2026-05-03 23:27 42.63012 25.17060 39203 ft 487 kts 117°
2026-05-03 23:28 42.59762 25.25133 39208 ft 487 kts 117°
2026-05-03 23:28 42.56510 25.33193 39193 ft 487 kts 117°
2026-05-03 23:29 42.53249 25.41247 39192 ft 487 kts 117°
2026-05-03 23:29 42.49707 25.49082 39167 ft 488 kts 122°
2026-05-03 23:30 42.45849 25.56659 39168 ft 489 kts 123°
2026-05-03 23:30 42.41977 25.64218 39169 ft 488 kts 123°
2026-05-03 23:31 42.38136 25.71795 39136 ft 489 kts 123°
2026-05-03 23:31 42.34303 25.79391 39139 ft 489 kts 123°
2026-05-03 23:32 42.30467 25.86982 39141 ft 489 kts 123°
2026-05-03 23:32 42.26648 25.94516 39132 ft 490 kts 123°
2026-05-03 23:33 42.22795 26.02096 39133 ft 489 kts 123°
2026-05-03 23:33 42.18939 26.09662 39134 ft 489 kts 123°
2026-05-03 23:34 42.15077 26.17219 39133 ft 490 kts 123°
2026-05-03 23:34 42.11209 26.24771 39128 ft 490 kts 123°
2026-05-03 23:35 42.07337 26.32312 39120 ft 489 kts 123°
2026-05-03 23:35 42.03459 26.39844 39118 ft 490 kts 123°
2026-05-03 23:36 41.99579 26.47363 39118 ft 490 kts 124°
2026-05-03 23:36 41.95691 26.54878 39107 ft 490 kts 124°
2026-05-03 23:37 41.93743 26.58636 38994 ft 491 kts 124°
2026-05-03 23:37 41.91767 26.62444 38155 ft 501 kts 124°
2026-05-03 23:37 41.89788 26.66253 37412 ft 492 kts 124°
2026-05-03 23:37 41.87858 26.69960 36610 ft 477 kts 124°
2026-05-03 23:38 41.85989 26.73548 35846 ft 463 kts 124°
2026-05-03 23:38 41.84152 26.77070 35041 ft 461 kts 124°
2026-05-03 23:38 41.82306 26.80606 34217 ft 465 kts 125°
2026-05-03 23:38 41.80447 26.84164 33184 ft 468 kts 125°
2026-05-03 23:39 41.78579 26.87735 32179 ft 469 kts 125°
2026-05-03 23:39 41.76707 26.91307 31165 ft 468 kts 126°
2026-05-03 23:39 41.74846 26.94856 30396 ft 462 kts 126°
2026-05-03 23:39 41.73013 26.98348 29580 ft 454 kts 126°
2026-05-03 23:40 41.71211 27.01774 28792 ft 447 kts 126°
2026-05-03 23:40 41.69435 27.05147 28066 ft 440 kts 125°
2026-05-03 23:40 41.67683 27.08469 27374 ft 434 kts 125°
2026-05-03 23:40 41.65950 27.11752 26681 ft 430 kts 125°
2026-05-03 23:41 41.64234 27.15002 25990 ft 426 kts 124°
2026-05-03 23:41 41.62533 27.18219 25328 ft 423 kts 124°
2026-05-03 23:41 41.60840 27.21418 24669 ft 420 kts 123°
2026-05-03 23:41 41.59153 27.24602 24009 ft 419 kts 123°
2026-05-03 23:42 41.57471 27.27772 23316 ft 418 kts 123°
2026-05-03 23:42 41.55795 27.30931 22583 ft 416 kts 123°
2026-05-03 23:42 41.54690 27.33011 22139 ft 414 kts 123°
2026-05-03 23:42 41.53030 27.36133 21486 ft 411 kts 123°
2026-05-03 23:43 41.50827 27.40271 20637 ft 407 kts 123°
2026-05-03 23:43 41.49743 27.42303 20212 ft 405 kts 123°
2026-05-03 23:43 41.48115 27.45355 19609 ft 402 kts 123°
2026-05-03 23:43 41.46499 27.48382 19003 ft 400 kts 122°
2026-05-03 23:44 41.44889 27.51394 18386 ft 398 kts 122°
2026-05-03 23:44 41.43288 27.54386 17686 ft 395 kts 122°
2026-05-03 23:44 41.41697 27.57360 17033 ft 393 kts 122°
2026-05-03 23:44 41.40117 27.60308 16428 ft 389 kts 122°
2026-05-03 23:45 41.38548 27.63232 15825 ft 386 kts 122°
2026-05-03 23:45 41.36991 27.66132 15217 ft 384 kts 122°
2026-05-03 23:45 41.35444 27.69011 14655 ft 382 kts 123°
2026-05-03 23:45 41.33902 27.71878 14056 ft 380 kts 123°
2026-05-03 23:46 41.32367 27.74729 13432 ft 379 kts 123°
2026-05-03 23:46 41.30837 27.77566 12913 ft 375 kts 123°
2026-05-03 23:46 41.29327 27.80365 12539 ft 371 kts 123°
2026-05-03 23:46 41.27822 27.83150 12263 ft 372 kts 123°
2026-05-03 23:47 41.26308 27.85954 12003 ft 374 kts 123°
2026-05-03 23:47 41.24787 27.88768 11777 ft 375 kts 123°
2026-05-03 23:47 41.23270 27.91569 11517 ft 372 kts 123°
2026-05-03 23:47 41.21762 27.94351 11275 ft 370 kts 123°
2026-05-03 23:48 41.20264 27.97112 11052 ft 368 kts 123°
2026-05-03 23:48 41.18773 27.99857 10828 ft 366 kts 123°
2026-05-03 23:48 41.17326 28.02516 10571 ft 347 kts 123°
2026-05-03 23:48 41.15977 28.04983 10320 ft 314 kts 122°
2026-05-03 23:49 41.14738 28.07252 10145 ft 298 kts 122°
2026-05-03 23:49 41.13540 28.09454 9936 ft 292 kts 121°
2026-05-03 23:49 41.12360 28.11623 9738 ft 288 kts 121°
2026-05-03 23:49 41.11195 28.13764 9542 ft 285 kts 121°
2026-05-03 23:50 41.10037 28.15889 9352 ft 283 kts 121°
2026-05-03 23:50 41.08886 28.18000 9165 ft 282 kts 121°
2026-05-03 23:50 41.07738 28.20105 8958 ft 281 kts 121°
2026-05-03 23:50 41.06591 28.22204 8750 ft 281 kts 121°
2026-05-03 23:51 41.05445 28.24300 8565 ft 281 kts 121°
2026-05-03 23:51 41.04298 28.26395 8369 ft 281 kts 121°
2026-05-03 23:51 41.03153 28.28485 8219 ft 279 kts 121°
2026-05-03 23:51 41.02015 28.30561 8060 ft 278 kts 121°
2026-05-03 23:52 41.00876 28.32640 7866 ft 279 kts 121°
2026-05-03 23:52 40.99735 28.34717 7680 ft 279 kts 120°
2026-05-03 23:52 40.98591 28.36798 7512 ft 280 kts 120°
2026-05-03 23:52 40.97450 28.38882 7338 ft 279 kts 118°
2026-05-03 23:53 40.96438 28.41057 7170 ft 277 kts 114°
2026-05-03 23:53 40.95506 28.43284 6991 ft 276 kts 113°
2026-05-03 23:53 40.94578 28.45512 6809 ft 276 kts 113°
2026-05-03 23:53 40.93643 28.47730 6630 ft 276 kts 113°
2026-05-03 23:54 40.92702 28.49937 6474 ft 274 kts 114°
2026-05-03 23:54 40.91766 28.52110 6310 ft 270 kts 114°
2026-05-03 23:54 40.90839 28.54252 6139 ft 267 kts 114°
2026-05-03 23:54 40.89920 28.56378 5976 ft 264 kts 113°
2026-05-03 23:55 40.89357 28.58609 5774 ft 254 kts 86°
2026-05-03 23:55 40.89640 28.60875 5673 ft 250 kts 67°
2026-05-03 23:55 40.90206 28.63014 5564 ft 250 kts 66°
2026-05-03 23:55 40.90770 28.65178 5427 ft 248 kts 66°
2026-05-03 23:56 40.91331 28.67325 5297 ft 244 kts 64°
2026-05-03 23:56 40.92210 28.69126 5118 ft 228 kts 41°
2026-05-03 23:56 40.93455 28.70328 5017 ft 217 kts 30°
2026-05-03 23:56 40.94735 28.71277 4947 ft 206 kts 28°
2026-05-03 23:57 40.95965 28.72169 4923 ft 201 kts 28°
2026-05-03 23:57 40.97218 28.72990 4908 ft 201 kts 17°
2026-05-03 23:57 40.98596 28.73218 4929 ft 198 kts
2026-05-03 23:57 40.99949 28.73302 4915 ft 192 kts
2026-05-03 23:58 41.01269 28.73323 4914 ft 189 kts
2026-05-03 23:58 41.02577 28.73312 4934 ft 188 kts
2026-05-03 23:58 41.03907 28.73290 4688 ft 192 kts
2026-05-03 23:58 41.05220 28.73260 4425 ft 185 kts
2026-05-03 23:59 41.06478 28.73230 4187 ft 177 kts
2026-05-03 23:59 41.07679 28.73202 3967 ft 170 kts
2026-05-03 23:59 41.08857 28.73177 3721 ft 169 kts
2026-05-03 23:59 41.10022 28.73149 3498 ft 164 kts
2026-05-04 00:00 41.11124 28.73122 3318 ft 155 kts
2026-05-04 00:00 41.12219 28.73099 3140 ft 157 kts
2026-05-04 00:00 41.13298 28.73073 2929 ft 154 kts
2026-05-04 00:00 41.14349 28.73051 2727 ft 146 kts
2026-05-04 00:01 41.15312 28.73026 2533 ft 132 kts
2026-05-04 00:01 41.16212 28.73007 2364 ft 128 kts
2026-05-04 00:01 41.17096 28.72988 2223 ft 131 kts
2026-05-04 00:01 41.18022 28.72966 1999 ft 129 kts
2026-05-04 00:02 41.18876 28.72947 1811 ft 115 kts
2026-05-04 00:02 41.19628 28.72929 1710 ft 106 kts 360°
2026-05-04 00:02 41.20375 28.72911 1513 ft 108 kts
2026-05-04 00:02 41.21138 28.72894 1374 ft 114 kts 360°
2026-05-04 00:03 41.21921 28.72876 1248 ft 110 kts 359°
2026-05-04 00:03 41.22702 28.72857 1110 ft 116 kts 359°
2026-05-04 00:03 41.23528 28.72836 945 ft 121 kts 359°
2026-05-04 00:03 41.24354 28.72818 778 ft 115 kts
2026-05-04 00:04 41.25139 28.72803 580 ft 112 kts
2026-05-04 00:04 41.25912 28.72786 469 ft 111 kts
2026-05-04 00:04 41.26684 28.72766 355 ft 109 kts
2026-05-04 00:04 41.27344 28.72752 337 ft 72 kts 359°
2026-05-04 00:05 41.27679 28.72745 336 ft 40 kts 359°
2026-05-04 00:05 41.27850 28.72743 337 ft 20 kts
2026-05-04 00:05 41.27987 28.72782 334 ft 20 kts 21°
2026-05-04 00:05 41.28089 28.72850 335 ft 11 kts 29°
2026-05-04 00:06 41.28129 28.72926 335 ft 4 kts 104°
2026-05-04 00:06 41.28078 28.72959 334 ft 14 kts 171°
2026-05-04 00:06 41.27967 28.72963 335 ft 15 kts 179°
2026-05-04 00:06 41.27861 28.72966 335 ft 15 kts 179°
2026-05-04 00:07 41.27755 28.72968 335 ft 15 kts 179°
2026-05-04 00:07 41.27649 28.72971 337 ft 15 kts 179°
2026-05-04 00:07 41.27542 28.72974 335 ft 15 kts 179°
2026-05-04 00:07 41.27436 28.72976 338 ft 15 kts 179°
2026-05-04 00:08 41.27330 28.72978 334 ft 15 kts 179°
2026-05-04 00:08 41.27224 28.72980 334 ft 15 kts 179°
2026-05-04 00:08 41.27118 28.72983 336 ft 15 kts 179°
2026-05-04 00:08 41.27012 28.72986 334 ft 15 kts 178°
2026-05-04 00:09 41.26941 28.73078 333 ft 15 kts 131°
2026-05-04 00:09 41.26837 28.73107 336 ft 16 kts 178°
2026-05-04 00:09 41.26728 28.73109 335 ft 16 kts 179°
2026-05-04 00:09 41.26619 28.73111 337 ft 16 kts 179°
2026-05-04 00:10 41.26510 28.73114 336 ft 16 kts 179°
2026-05-04 00:10 41.26401 28.73116 334 ft 16 kts 179°
2026-05-04 00:10 41.26292 28.73119 338 ft 16 kts 179°
2026-05-04 00:10 41.26182 28.73122 335 ft 16 kts 179°
2026-05-04 00:11 41.26073 28.73124 334 ft 16 kts 179°
2026-05-04 00:11 41.25974 28.73126 335 ft 14 kts 179°
2026-05-04 00:11 41.25913 28.73205 335 ft 14 kts 96°
2026-05-04 00:11 41.25912 28.73331 336 ft 12 kts 89°
2026-05-04 00:12 41.25924 28.73420 333 ft 8 kts 78°
2026-05-04 00:12 41.25920 28.73487 334 ft 7 kts 102°
2026-05-04 00:12 41.25912 28.73528 336 ft 3 kts 105°
2026-05-04 00:12 41.25909 28.73542 335 ft 1 kts 104°
2026-05-04 00:13 41.25908 28.73546 335 ft 0 kts 104°